User: anonymous   Login
Location: Ab? ar R?sh Ba?r?
(24.1861°N, 32.8847°E)
Time: 11:26:09
(UTC+00:00)
Language:

deb r/b Ablestar - Orbit

View from above orbital plane
View from above orbital plane
View from above satellite
View from above satellite

Ground track
Ground track

The orbit data is extracted from the following two-line orbital elements,

1   232U 61015BQ  22229.04872140  .00000108  00000-0  12629-3 0  9995
2   232  66.8205  82.7223 0055033  16.7331 343.5551 13.99471943111477
Epoch (UTC): 17 August 2022 01:10:09
Eccentricity: 0.0055033
inclination: 66.8205°
perigee height: 855 km
apogee height: 935 km
right ascension of ascending node: 82.7223°
argument of perigee: 16.7331°
revolutions per day: 13.99471943
mean anomaly at epoch: 343.5551°
orbit number at epoch: 11147

The dashed part of the orbit path shows where the satellite is in the earth's shadow,  

DLR